Block Island, RI

12:58 PM EDT on June 22, 2017 (GMT -0400)
Block Island State

Weather History for KBID - December, 2012

Change the Weather History Date:

Wednesday, December 19, 2012

  Actual Average Record
Temperature  
Mean Temperature 44 °F -  
Max Temperature 46 °F 39 °F 57 °F (1984)
Min Temperature 41 °F 26 °F 11 °F (1991)
Degree Days  
Heating Degree Days 22    
Moisture  
Dew Point 31 °F    
Average Humidity 60    
Maximum Humidity 76    
Minimum Humidity 53    
Precipitation  
Precipitation 0.00 in - - ()
Sea Level Pressure  
Sea Level Pressure 29.70 in    
Wind  
Wind Speed 16 mph (NW)    
Max Wind Speed 23 mph    
Max Gust Speed 36 mph    
Visibility 10 miles    
Events      
Averages and records for this station are not official NWS values.
T = Trace of Precipitation, MM = Missing Value Source: NWS Daily Summary

Daily Weather History Graph

Daily Weather History Graph

Search for Another Location

Airport or City:

Trip Planner

Search our weather history database for the weather conditions in past years. The results will help you decide how hot, cold, wet, or windy it might be!

Date:

Astronomy

Dec. 19, 2012 Rise Set
Actual Time 7:07 AM EST 4:19 PM EST
Civil Twilight 6:36 AM EST 4:51 PM EST
Nautical Twilight 6:01 AM EST 5:25 PM EST
Astronomical Twilight 5:27 AM EST 5:59 PM EST
Moon 11:11 AM EST (12/19) 11:48 PM EST (12/19)
Length of Visible Light 10h 15m
Length of Day
9h 12m
Waxing Crescent, 45% of the Moon is Illuminated
Dec 19
Waxing Crescent
Dec 20
First Quarter
Dec 28
Full
Jan 4
Last Quarter
Jan 11
New

Hourly Weather History & Observations

Time (EST) Temp. Windchill Dew Point Humidity Pressure Visibility Wind Dir Wind Speed Gust Speed Precip Events Conditions
12:35 AM 44.6 °F 37.4 °F 37.4 °F 76% 29.49 in 10.0 mi NW 16.1 mph 31.1 mph N/A   Overcast
12:55 AM 44.6 °F 38.1 °F 37.4 °F 76% 29.49 in 10.0 mi NW 13.8 mph 25.3 mph N/A   Scattered Clouds
1:15 AM 44.6 °F 38.1 °F 37.4 °F 76% 29.50 in 10.0 mi NW 13.8 mph 24.2 mph N/A   Partly Cloudy
1:55 AM 44.6 °F 37.2 °F 35.6 °F 71% 29.52 in 10.0 mi WNW 17.3 mph 27.6 mph N/A   Partly Cloudy
2:15 AM 44.6 °F 37.4 °F 33.8 °F 66% 29.53 in 10.0 mi WNW 16.1 mph 31.1 mph N/A   Partly Cloudy
2:35 AM 44.6 °F 37.4 °F 33.8 °F 66% 29.53 in 10.0 mi WNW 16.1 mph 24.2 mph N/A   Partly Cloudy
2:55 AM 44.6 °F 37.4 °F 33.8 °F 66% 29.53 in 10.0 mi WNW 16.1 mph 27.6 mph N/A   Partly Cloudy
3:15 AM 44.6 °F 37.2 °F 33.8 °F 66% 29.54 in 10.0 mi West 17.3 mph 28.8 mph N/A   Partly Cloudy
3:35 AM 44.6 °F 36.6 °F 33.8 °F 66% 29.54 in 10.0 mi WNW 19.6 mph 29.9 mph N/A   Scattered Clouds
3:56 AM 44.6 °F 37.8 °F 33.8 °F 66% 29.54 in 10.0 mi WNW 15.0 mph 28.8 mph N/A   Scattered Clouds
4:15 AM 44.6 °F 37.2 °F 33.8 °F 66% 29.54 in 10.0 mi WNW 17.3 mph 27.6 mph N/A   Mostly Cloudy
4:35 AM 42.8 °F 34.5 °F 33.8 °F 70% 29.54 in 10.0 mi WNW 18.4 mph 26.5 mph N/A   Mostly Cloudy
4:55 AM 42.8 °F 35.1 °F 33.8 °F 70% 29.55 in 10.0 mi WNW 16.1 mph 26.5 mph N/A   Mostly Cloudy
5:15 AM 42.8 °F 34.8 °F 33.8 °F 70% 29.55 in 10.0 mi WNW 17.3 mph 32.2 mph N/A   Mostly Cloudy
5:35 AM 42.8 °F 34.8 °F 32.0 °F 66% 29.55 in 10.0 mi NW 17.3 mph 29.9 mph N/A   Mostly Cloudy
5:55 AM 42.8 °F 34.3 °F 32.0 °F 66% 29.56 in 10.0 mi NW 19.6 mph 31.1 mph N/A   Scattered Clouds
6:15 AM 42.8 °F 34.5 °F 30.2 °F 61% 29.57 in 10.0 mi NW 18.4 mph 27.6 mph N/A   Mostly Cloudy
6:35 AM 42.8 °F 34.8 °F 30.2 °F 61% 29.57 in 10.0 mi NW 17.3 mph 32.2 mph N/A   Overcast
6:55 AM 42.8 °F 34.5 °F 30.2 °F 61% 29.58 in 10.0 mi NW 18.4 mph 26.5 mph N/A   Overcast
7:15 AM 42.8 °F 33.8 °F 30.2 °F 61% 29.57 in 10.0 mi WNW 21.9 mph 31.1 mph N/A   Overcast
7:55 AM 42.8 °F 34.0 °F 30.2 °F 61% 29.58 in 10.0 mi NW 20.7 mph 31.1 mph N/A   Clear
8:15 AM 42.8 °F 34.3 °F 30.2 °F 61% 29.59 in 10.0 mi NW 19.6 mph 35.7 mph N/A   Mostly Cloudy
8:35 AM 42.8 °F 34.8 °F 30.2 °F 61% 29.60 in 10.0 mi NW 17.3 mph 29.9 mph N/A   Overcast
8:55 AM 42.8 °F 34.3 °F 30.2 °F 61% 29.61 in 10.0 mi NW 19.6 mph 32.2 mph N/A   Overcast
9:15 AM 44.6 °F 36.9 °F 30.2 °F 57% 29.61 in 10.0 mi NW 18.4 mph 31.1 mph N/A   Mostly Cloudy
9:35 AM 44.6 °F 35.9 °F 30.2 °F 57% 29.62 in 10.0 mi NW 23.0 mph 33.4 mph N/A   Mostly Cloudy
9:55 AM 44.6 °F 36.1 °F 32.0 °F 61% 29.63 in 10.0 mi NW 21.9 mph 33.4 mph N/A   Mostly Cloudy
10:15 AM 44.6 °F 36.6 °F 30.2 °F 57% 29.63 in 10.0 mi NW 19.6 mph 26.5 mph N/A   Scattered Clouds
10:35 AM 46.4 °F 39.8 °F 30.2 °F 53% 29.62 in 10.0 mi NW 16.1 mph 29.9 mph N/A   Partly Cloudy
10:55 AM 46.4 °F 39.5 °F 32.0 °F 57% 29.63 in 10.0 mi WNW 17.3 mph 28.8 mph N/A   Partly Cloudy
11:15 AM 46.4 °F 39.5 °F 30.2 °F 53% 29.64 in 10.0 mi NW 17.3 mph 28.8 mph N/A   Mostly Cloudy
11:35 AM 46.4 °F 39.5 °F 30.2 °F 53% 29.64 in 10.0 mi NW 17.3 mph 27.6 mph N/A   Overcast
11:55 AM 46.4 °F 39.8 °F 30.2 °F 53% 29.65 in 10.0 mi NW 16.1 mph 31.1 mph N/A   Scattered Clouds
12:35 PM 46.4 °F 39.5 °F 32.0 °F 57% 29.65 in 10.0 mi NW 17.3 mph 26.5 mph N/A   Scattered Clouds
1:15 PM 46.4 °F 39.0 °F 32.0 °F 57% 29.67 in 10.0 mi NW 19.6 mph 28.8 mph N/A   Mostly Cloudy
1:35 PM 46.4 °F 38.7 °F 30.2 °F 53% 29.67 in 10.0 mi NW 20.7 mph 28.8 mph N/A   Mostly Cloudy
1:55 PM 46.4 °F 39.5 °F 30.2 °F 53% 29.68 in 10.0 mi NW 17.3 mph 25.3 mph N/A   Partly Cloudy
2:15 PM 46.4 °F 39.2 °F 30.2 °F 53% 29.69 in 10.0 mi NW 18.4 mph 31.1 mph N/A   Clear
2:55 PM 46.4 °F 39.5 °F 30.2 °F 53% 29.70 in 10.0 mi NNW 17.3 mph 27.6 mph N/A   Clear
3:15 PM 46.4 °F 39.0 °F 30.2 °F 53% 29.72 in 10.0 mi NNW 19.6 mph 34.5 mph N/A   Clear
3:35 PM 46.4 °F 39.0 °F 30.2 °F 53% 29.73 in 10.0 mi NNW 19.6 mph 28.8 mph N/A   Clear
3:55 PM 44.6 °F 36.1 °F 30.2 °F 57% 29.74 in 10.0 mi NNW 21.9 mph 28.8 mph N/A   Clear
4:15 PM 44.6 °F 38.1 °F 30.2 °F 57% 29.76 in 10.0 mi NNW 13.8 mph 24.2 mph N/A   Clear
4:35 PM 44.6 °F 36.9 °F 30.2 °F 57% 29.77 in 10.0 mi NNW 18.4 mph 28.8 mph N/A   Clear
4:55 PM 44.6 °F 37.4 °F 28.4 °F 53% 29.80 in 10.0 mi NNW 16.1 mph 25.3 mph N/A   Clear
5:16 PM 44.6 °F 37.4 °F 30.2 °F 57% 29.81 in 10.0 mi NNW 16.1 mph 23.0 mph N/A   Clear
5:35 PM 44.6 °F 38.8 °F 30.2 °F 57% 29.83 in 10.0 mi NNW 11.5 mph 20.7 mph N/A   Partly Cloudy
5:55 PM 44.6 °F 38.4 °F 30.2 °F 57% 29.85 in 10.0 mi NNW 12.7 mph 18.4 mph N/A   Mostly Cloudy
6:55 PM 44.6 °F 38.8 °F 30.2 °F 57% 29.90 in 10.0 mi NNW 11.5 mph 19.6 mph N/A   Overcast
7:15 PM 44.6 °F 38.4 °F 30.2 °F 57% 29.91 in 10.0 mi NNW 12.7 mph 18.4 mph N/A   Overcast
7:35 PM 42.8 °F 37.5 °F 30.2 °F 61% 29.92 in 10.0 mi NNW 9.2 mph 18.4 mph N/A   Scattered Clouds
8:55 PM 42.8 °F 36.6 °F 28.4 °F 57% 29.96 in 10.0 mi NNW 11.5 mph 16.1 mph N/A   Clear
9:15 PM 42.8 °F 36.6 °F 28.4 °F 57% 29.97 in 10.0 mi NNW 11.5 mph 18.4 mph N/A   Clear
9:35 PM 42.8 °F 37.0 °F 28.4 °F 57% 29.99 in 10.0 mi NNW 10.4 mph 17.3 mph N/A   Clear
9:55 PM 42.8 °F 36.6 °F 28.4 °F 57% 29.98 in 10.0 mi NNW 11.5 mph 19.6 mph N/A   Clear
10:15 PM 42.8 °F 36.2 °F 28.4 °F 57% 29.99 in 10.0 mi NNW 12.7 mph 18.4 mph N/A   Partly Cloudy
10:35 PM 42.8 °F 36.6 °F 28.4 °F 57% 30.00 in 10.0 mi NNW 11.5 mph - N/A   Scattered Clouds
10:55 PM 42.8 °F 35.8 °F 28.4 °F 57% 30.01 in 10.0 mi NNW 13.8 mph 20.7 mph N/A   Mostly Cloudy
11:15 PM 42.8 °F 37.0 °F 28.4 °F 57% 30.02 in 10.0 mi NNW 10.4 mph 19.6 mph N/A   Scattered Clouds
11:35 PM 41.0 °F 34.3 °F 28.4 °F 61% 30.03 in 10.0 mi NNW 11.5 mph 17.3 mph N/A   Partly Cloudy
11:55 PM 41.0 °F 33.9 °F 28.4 °F 61% 30.02 in 10.0 mi NNW 12.7 mph 21.9 mph N/A   Partly Cloudy